This is the latest recevied weather packets stored in our database for station/object DL2ARH-7. If no packets are shown the sender has not sent any weather packets the latest 1 day(s).
| Time | Temp. | Humidity | Pressure | Rain* | Wind** | Luminosity | Snow |
|---|---|---|---|---|---|---|---|
| 1778088455 | 16.11° C | 79% | 1004.7 hPa | 0 mm | - | - | - |
| 1778088389 | 15.56° C | 79% | 1004.7 hPa | 0 mm | - | - | - |
| 1778088123 | 16.11° C | 77% | 1004.7 hPa | 0 mm | - | - | - |
| 1778087791 | 16.11° C | 74% | 1004.7 hPa | 0 mm | - | - | - |
| 1778087524 | 16.11° C | 82% | 1004.6 hPa | 0 mm | - | - | - |
| 1778087391 | 16.11° C | 72% | 1004.6 hPa | 0 mm | - | - | - |
| 1778087325 | 16.67° C | 72% | 1004.6 hPa | 0 mm | - | - | - |
| 1778086926 | 16.67° C | 70% | 1004.6 hPa | 0 mm | - | - | - |
| 1778086859 | 16.67° C | 71% | 1004.7 hPa | 0 mm | - | - | - |
| 1778086793 | 16.67° C | 70% | 1004.6 hPa | 0 mm | - | - | - |
| 1778086727 | 16.67° C | 70% | 1004.7 hPa | 0 mm | - | - | - |
| 1778086594 | 16.67° C | 69% | 1004.6 hPa | 0 mm | - | - | - |
| 1778085996 | 17.22° C | 58% | 1004.6 hPa | 0 mm | - | - | - |
| 1778085862 | 17.78° C | 55% | 1004.7 hPa | 0 mm | - | - | - |
| 1778085796 | 17.78° C | 53% | 1004.6 hPa | 0 mm | - | - | - |
| 1778085663 | 17.78° C | 48% | 1004.6 hPa | 0 mm | - | - | - |
| 1778085397 | 17.78° C | 37% | 1004.7 hPa | 0 mm | - | - | - |
| 1778085264 | 18.33° C | 30% | 1004.7 hPa | 0 mm | - | - | - |
| 1778084798 | 18.89° C | 23% | 1004.5 hPa | 0 mm | - | - | - |
| 1778084266 | 18.89° C | 22% | 1004.5 hPa | 0 mm | - | - | - |
| 1778084001 | 18.89° C | 22% | 1004.3 hPa | 0 mm | - | - | - |
| 1778083933 | 18.89° C | 22% | 1004.4 hPa | 0 mm | - | - | - |
| 1778083734 | 19.44° C | 21% | 1004.4 hPa | 0 mm | - | - | - |
| 1778083667 | 18.89° C | 21% | 1004.4 hPa | 0 mm | - | - | - |
| 1778083534 | 19.44° C | 21% | 1004.3 hPa | 0 mm | - | - | - |
* Rain latest hour (hover to see other rain measurements)
** Current wind speed in m/s (hover to see current wind gust speed)